Wetbulb
55.12 55.21 54.69 54.92 54.77 54.43 54.11 53.81 53.82 54.17 54.92 55.15 55.66 56.49 56.65 57.08 56.84 56.75 50.38 55.71 58.63 64.11 65.42 63.23 62.32 61.58 59.78 57.67 60.12 61.35 54.10 51.79 53.25 53.71 54.80 58.30 56.89 59.41 60.51 59.23 60.21 60.87 60.40 62.33 63.59
53.96 54.18 54.65 54.70 54.93 55.04 54.94 54.74 54.46 54.00 53.90 54.21 54.46 55.18 55.86 56.66 55.11 53.21 60.33 59.94 62.86 64.10 55.97 59.29 57.53 59.22 58.23 58.08 58.96 57.91 54.02 53.81 57.08 57.81 56.77 58.16 58.12 58.71 57.90 58.41 58.48 59.86 62.21 63.31 63.48
54.01 54.23 53.93 53.98 53.86 53.82 54.09 54.75 55.13 54.80 54.28 53.92 54.17 54.83 55.57 56.27 51.43 50.51 60.67 64.73 63.47 62.96 54.46 57.91 57.50 56.59 54.72 57.64 58.01 57.59 54.00 57.33 57.69 58.74 59.23 57.92 57.84 59.56 57.49 56.41 58.24 58.82 60.76 62.27 62.78
53.45 53.44 53.73 53.72 53.46 53.39 53.57 53.76 54.19 54.77 54.63 54.25 53.67 54.26 55.36 54.45 43.30 58.22 58.89 61.07 65.03 62.85 55.97 55.05 56.30 53.24 52.73 52.53 57.13 54.67 57.48 58.00 58.55 58.87 58.44 57.31 59.04 57.55 58.17 58.50 60.38 61.11 61.73 61.73 61.86
52.31 52.83 53.32 53.34 53.49 53.31 53.07 53.62 53.67 53.81 53.98 54.41 54.01 53.38 53.45 48.79 48.69 56.65 60.90 60.61 55.81 59.23 54.96 55.01 54.49 54.13 52.59 53.91 53.97 54.61 56.48 58.01 58.38 58.47 58.28 58.63 57.15 57.21 57.95 59.78 61.21 61.13 61.60 61.75 62.11
52.83 53.12 53.30 53.41 53.43 53.19 53.56 53.80 53.83 53.69 53.65 53.76 53.88 53.23 50.47 42.35 53.55 55.80 55.95 55.83 55.01 55.54 56.08 55.42 53.58 56.25 55.38 54.93 53.76 54.85 55.19 55.97 57.50 57.55 58.06 56.76 56.85 57.60 58.12 59.21 59.89 60.44 60.23 60.62 60.94
52.47 52.65 53.02 53.29 53.45 53.51 53.51 53.62 53.65 53.84 53.72 53.99 54.02 52.69 48.07 46.14 53.42 54.72 54.55 54.10 55.08 53.54 53.41 55.06 55.91 55.30 56.12 53.40 56.76 55.08 52.42 53.95 55.00 56.27 55.79 57.15 53.98 54.44 58.14 58.84 58.80 58.78 59.33 60.05 60.76
52.53 52.91 53.04 53.25 53.15 53.47 53.33 53.49 53.55 53.39 53.57 54.02 54.03 51.33 44.49 52.41 54.72 52.89 54.54 54.00 55.23 55.50 53.84 54.23 55.04 53.53 54.79 56.47 53.90 52.06 53.07 49.13 54.27 55.56 56.28 55.79 49.83 55.31 57.92 57.26 56.99 57.84 57.96 58.77 59.97
52.70 53.16 52.91 53.08 52.75 53.08 53.05 53.20 53.09 53.09 53.62 53.65 51.55 48.62 43.87 53.11 49.18 52.15 54.00 51.32 53.36 54.30 55.08 53.57 52.16 51.29 51.66 48.06 47.71 50.14 46.15 48.83 51.23 55.63 53.98 52.98 50.68 55.30 57.60 57.15 56.48 57.37 57.65 57.88 59.35
52.79 52.95 53.22 52.87 52.58 52.89 52.89 52.54 52.79 52.48 53.56 54.00 51.77 44.74 47.59 44.04 49.27 51.87 53.54 53.93 51.02 51.26 50.97 50.16 48.95 47.54 48.16 47.06 42.19 45.61 46.57 47.94 48.58 52.94 53.10 50.93 51.31 54.40 56.53 56.45 55.81 56.23 56.86 57.39 58.61
52.52 52.80 52.87 53.26 52.64 52.35 51.56 51.89 48.64 47.70 48.34 45.34 44.66 44.83 45.76 48.91 49.83 48.61 50.62 51.05 51.18 49.07 44.79 47.92 43.97 43.08 46.29 48.51 48.90 48.78 48.42 48.28 50.80 52.99 51.42 50.72 51.01 52.95 55.60 55.43 54.59 55.74 56.24 57.25 58.75
52.20 52.12 52.35 52.74 52.66 52.42 51.57 46.09 45.93 46.84 40.63 46.45 46.11 45.99 47.69 48.52 43.24 46.79 50.42 45.02 46.73 43.10 46.35 45.59 41.87 46.88 48.79 49.08 48.16 47.97 47.05 47.33 50.44 52.22 51.56 50.35 49.60 52.46 53.81 54.25 55.25 55.86 56.08 57.16 59.37
52.48 52.19 52.24 52.16 52.08 51.42 48.36 47.29 51.24 50.76 40.32 42.88 45.64 44.83 46.23 47.84 43.93 44.98 47.68 45.45 43.66 43.35 44.23 42.93 44.96 47.66 46.99 46.73 45.97 46.47 45.92 46.61 46.27 49.91 51.27 49.09 46.94 49.29 52.48 54.13 54.53 55.74 57.46 59.04 58.87
52.20 52.15 52.05 51.65 48.85 50.55 46.82 50.27 51.78 51.26 34.52 37.92 41.17 45.14 47.14 46.85 42.52 49.41 49.52 45.43 44.28 42.16 44.09 44.11 47.64 46.48 46.02 45.18 46.78 43.62 47.85 46.58 46.52 45.77 42.20 49.14 40.88 48.27 50.97 51.76 53.70 55.14 56.59 57.66 58.69
51.99 51.58 50.86 50.56 48.60 46.48 48.28 51.42 51.62 48.67 23.60 38.24 42.19 50.63 47.31 43.16 44.05 45.19 50.11 46.64 40.50 42.98 44.36 42.08 44.22 44.78 44.74 45.51 47.66 45.53 47.37 47.35 46.83 45.43 45.07 44.99 42.53 46.06 50.40 49.63 52.16 55.03 56.53 58.43 58.75
51.73 51.23 50.18 50.84 48.78 50.01 51.36 51.22 48.58 33.12 23.42 34.88 41.10 40.25 40.38 42.12 42.19 44.94 45.98 48.08 46.41 41.03 44.45 44.37 48.45 46.95 46.91 48.08 48.17 48.91 46.55 47.08 46.95 45.35 39.48 44.01 43.71 44.35 47.86 50.63 52.71 55.10 55.37 57.18 59.07
51.48 50.57 49.74 51.25 46.01 51.55 51.22 46.60 32.61 25.78 36.87 33.61 35.29 39.07 38.36 37.75 38.70 40.85 40.56 41.12 38.76 34.48 35.97 42.75 43.47 46.74 47.78 45.89 48.09 47.34 45.23 39.93 38.30 38.67 38.12 45.94 43.58 45.61 51.38 53.03 53.65 53.68 56.02 59.35 60.85
50.70 49.30 49.24 52.15 51.53 51.16 47.79 38.06 24.77 31.35 31.88 37.88 36.77 37.24 34.44 37.18 37.51 38.30 38.30 37.64 43.08 40.48 38.48 36.66 36.49 43.43 46.99 46.31 44.75 45.27 45.39 40.64 34.45 36.52 40.46 46.01 41.72 46.10 52.25 54.35 55.47 56.16 55.92 58.30 60.70
49.19 53.09 52.60 51.81 51.84 50.23 41.05 30.11 30.36 32.96 35.77 34.47 35.95 33.24 34.08 35.89 36.21 36.61 36.35 35.87 40.76 42.80 35.77 37.18 39.12 45.89 46.41 47.26 48.21 45.55 43.77 48.24 43.12 44.03 41.40 44.18 47.05 51.31 53.99 54.59 55.02 55.80 57.31 58.66 61.23
48.30 48.40 48.60 52.15 52.08 44.71 35.44 30.61 33.89 37.98 38.06 37.48 30.86 33.77 30.96 33.22 33.64 35.06 34.20 35.82 35.89 42.49 44.95 40.94 38.37 45.11 45.28 47.42 48.14 48.19 49.25 42.43 43.58 36.75 35.50 40.41 42.14 43.60 49.64 52.12 54.03 55.14 56.90 59.80 61.09
48.05 43.76 49.17 52.35 50.66 42.96 33.02 33.14 36.29 39.95 39.84 35.60 33.96 33.07 33.59 32.88 34.53 33.60 31.29 35.54 36.36 39.38 43.14 43.02 41.54 42.87 45.07 43.47 43.74 45.63 45.31 46.22 46.34 43.52 38.46 37.71 40.68 51.08 51.08 53.19 55.18 56.76 59.31 60.32 60.85
45.60 39.84 49.19 51.45 40.23 39.13 33.59 35.51 38.28 38.39 40.96 38.45 38.43 36.15 34.25 34.78 34.25 33.80 32.70 35.13 38.81 40.53 36.71 43.60 41.70 38.84 42.03 46.13 48.14 47.61 46.16 46.84 41.41 40.35 42.43 41.04 41.75 53.65 54.65 56.02 56.63 57.02 59.44 60.98 61.54
41.19 41.68 50.03 48.94 33.26 32.13 34.98 36.24 38.27 37.40 37.81 37.34 36.26 37.78 38.86 35.59 31.60 34.79 36.42 39.84 38.72 38.23 37.34 42.33 40.06 37.41 40.60 44.10 46.49 45.22 45.96 47.19 47.70 47.62 42.44 39.60 42.93 52.65 56.09 56.64 57.39 57.73 59.41 60.37 61.05
42.76 37.41 42.45 45.14 40.70 35.44 33.32 34.32 34.57 39.51 38.05 38.71 37.66 38.70 36.90 35.21 37.01 34.01 35.09 38.31 39.55 38.87 41.47 42.51 41.40 40.29 38.89 41.33 45.00 42.81 44.47 46.31 46.59 42.79 42.68 43.32 44.72 48.86 53.54 54.44 56.45 58.02 59.72 60.61 60.83
42.93 39.00 39.89 35.41 36.68 36.36 35.97 34.35 31.98 32.36 38.18 39.61 36.47 36.27 34.70 32.29 33.77 31.52 33.64 36.05 39.34 39.30 40.95 40.38 38.31 41.70 43.16 43.87 44.96 44.80 44.20 45.15 44.88 46.10 43.13 44.76 45.71 48.75 52.39 53.78 56.23 58.47 59.64 59.92 60.11
40.28 37.55 40.14 38.13 38.42 36.19 35.65 34.66 33.35 35.18 35.12 35.46 34.96 36.41 37.27 34.30 35.15 32.23 35.06 35.99 34.91 39.76 40.02 42.64 39.59 42.46 40.19 43.49 44.09 43.29 44.92 45.52 45.90 46.45 46.43 46.39 46.99 52.15 53.81 54.47 55.92 57.60 59.21 59.75 60.03
44.25 45.76 40.13 37.20 35.67 33.90 34.58 34.93 35.56 37.64 38.09 39.22 38.05 36.68 35.98 38.04 40.84 41.61 41.87 41.33 39.69 37.22 37.12 37.95 38.07 39.71 37.24 42.85 42.66 40.80 44.58 45.13 46.01 47.42 47.38 44.51 48.67 53.36 53.22 54.43 56.08 57.97 59.08 60.08 60.81
MSLP
1022.12 1021.67 1021.36 1021.16 1020.91 1020.80 1020.45 1020.25 1019.81 1019.70 1019.20 1018.79 1018.39 1018.07 1017.67 1017.01 1016.17 1014.65 1013.27 1012.22 1012.14 1012.41 1012.62 1012.10 1011.89 1011.75 1011.48 1010.64 1009.76 1009.21 1007.45 1005.62 1004.67 1004.13 1004.02 1003.98 1004.29 1004.52 1004.88 1004.55 1004.28 1004.32 1004.22 1004.11 1004.55
1022.38 1022.10 1021.77 1021.44 1021.15 1020.66 1020.40 1020.06 1019.89 1019.75 1019.31 1018.88 1018.59 1018.37 1017.94 1017.17 1015.78 1013.33 1011.84 1011.96 1012.12 1012.16 1011.94 1011.37 1010.89 1010.62 1010.40 1009.51 1009.05 1008.42 1006.19 1004.89 1004.38 1004.01 1003.79 1003.88 1004.04 1004.21 1004.64 1004.23 1003.80 1003.61 1003.31 1003.54 1003.91
1022.45 1022.00 1021.54 1021.23 1020.90 1020.61 1020.32 1019.97 1019.65 1019.52 1019.23 1018.93 1018.56 1018.36 1017.82 1017.07 1014.54 1010.61 1011.43 1011.46 1011.45 1011.46 1010.91 1010.58 1009.94 1009.86 1009.22 1008.69 1007.91 1007.08 1004.94 1004.33 1003.90 1003.98 1003.95 1004.17 1004.33 1004.12 1003.81 1003.79 1003.66 1003.30 1003.25 1003.24 1003.26
1022.55 1022.14 1021.76 1021.39 1020.94 1020.54 1020.24 1019.93 1019.78 1019.32 1018.92 1018.90 1018.74 1018.36 1017.74 1016.40 1012.68 1010.61 1011.51 1011.54 1010.71 1010.24 1010.49 1009.80 1009.60 1008.71 1008.32 1007.41 1007.39 1006.33 1004.88 1004.40 1003.81 1003.53 1003.80 1004.17 1004.25 1003.71 1003.46 1003.65 1003.73 1003.43 1003.25 1003.07 1002.80
1022.47 1022.05 1021.72 1021.39 1021.00 1020.58 1020.15 1019.74 1019.30 1019.06 1018.94 1018.70 1018.60 1018.39 1017.32 1015.08 1011.72 1010.46 1011.29 1011.09 1010.34 1010.28 1009.49 1008.64 1008.29 1007.82 1006.90 1006.74 1006.71 1004.82 1004.84 1004.21 1003.95 1004.25 1003.95 1004.15 1003.78 1003.50 1002.81 1003.42 1003.44 1003.28 1002.76 1002.44 1002.21
1022.37 1022.02 1021.65 1021.19 1020.74 1020.32 1019.87 1019.45 1019.06 1018.73 1018.46 1018.41 1018.28 1018.21 1016.86 1013.95 1011.62 1011.22 1011.44 1011.13 1010.55 1009.84 1009.13 1008.79 1007.87 1007.43 1006.45 1005.72 1005.20 1004.74 1004.32 1004.29 1004.23 1003.86 1003.86 1003.82 1003.26 1003.28 1002.38 1003.05 1002.61 1002.36 1002.02 1001.73 1001.54
1022.27 1021.89 1021.44 1020.94 1020.44 1019.93 1019.49 1019.11 1018.74 1018.40 1018.02 1017.73 1017.55 1017.49 1015.92 1013.08 1011.59 1011.39 1011.35 1011.07 1010.92 1010.37 1009.03 1008.46 1007.88 1007.58 1006.38 1005.87 1005.12 1004.60 1004.33 1003.97 1003.96 1003.76 1003.35 1003.80 1001.80 1001.93 1001.82 1002.32 1001.82 1001.31 1001.22 1001.11 1000.97
1022.06 1021.63 1021.16 1020.61 1020.07 1019.53 1019.02 1018.51 1017.99 1017.61 1017.14 1016.90 1017.06 1016.84 1013.71 1011.70 1011.36 1011.24 1010.96 1010.46 1010.51 1010.77 1010.11 1009.04 1008.47 1007.60 1006.58 1006.02 1005.10 1004.44 1003.90 1002.48 1002.95 1003.21 1003.52 1003.70 999.18 1000.81 1000.70 1000.85 1000.34 1000.52 1000.43 1000.40 1000.43
1021.77 1021.32 1020.86 1020.35 1019.83 1019.23 1018.62 1017.88 1017.17 1016.71 1016.24 1016.26 1016.36 1015.84 1012.05 1011.55 1011.53 1010.91 1010.84 1010.27 1009.67 1009.42 1009.60 1009.39 1008.64 1007.17 1006.78 1005.95 1005.00 1003.46 1001.65 1001.65 1001.74 1001.85 1001.88 1002.09 999.33 1000.53 1000.44 1000.14 1000.20 1000.13 999.99 999.72 999.67
1021.44 1020.93 1020.42 1019.90 1019.40 1018.84 1018.14 1016.90 1015.97 1016.17 1015.58 1015.18 1014.94 1014.74 1011.65 1010.50 1010.33 1010.47 1010.08 1009.84 1009.43 1008.59 1008.55 1008.28 1007.48 1006.26 1005.43 1003.88 1001.03 1001.99 1001.66 1001.60 1000.55 1000.49 1000.78 1001.11 999.77 1000.18 999.94 999.61 999.76 999.65 999.35 999.11 998.79
1021.08 1020.59 1020.10 1019.60 1019.16 1018.68 1017.60 1015.39 1014.96 1014.34 1014.12 1012.99 1011.99 1011.45 1010.22 1009.99 1009.79 1009.72 1009.54 1009.13 1008.81 1008.22 1006.25 1006.26 1005.85 1002.87 1000.27 1002.36 1002.32 1002.28 1001.30 1000.39 1000.14 1000.40 1000.64 1000.53 999.84 999.27 999.18 999.02 999.36 998.97 998.51 998.16 997.84
1020.90 1020.37 1019.84 1019.29 1018.74 1018.26 1017.38 1015.92 1016.10 1016.41 1014.11 1012.10 1011.18 1010.96 1010.33 1010.21 1009.61 1009.33 1009.53 1008.85 1007.62 1006.39 1006.33 1005.10 1002.48 998.41 1002.15 1002.19 1002.12 1001.98 1001.20 1000.24 1000.44 1000.74 1000.87 1000.42 999.82 999.47 999.11 998.68 998.51 998.00 997.55 997.08 996.94
1020.77 1020.25 1019.69 1019.14 1018.49 1017.86 1016.96 1016.55 1016.36 1016.16 1014.27 1010.51 1009.64 1009.38 1009.22 1009.17 1008.52 1007.81 1008.04 1007.48 1006.64 1005.67 1004.05 1001.95 996.94 1001.84 1001.06 1001.03 1001.02 1000.87 1000.76 1000.90 1001.11 1001.05 1000.94 1000.97 999.91 999.28 998.43 997.49 996.94 996.62 996.58 996.43 996.32
1020.57 1020.03 1019.48 1018.95 1018.07 1017.15 1016.27 1016.64 1016.39 1016.27 1013.96 1009.23 1008.82 1008.52 1008.40 1008.63 1007.89 1007.22 1007.28 1007.00 1005.84 1004.59 1003.73 1001.98 1000.68 999.83 1000.07 999.39 1000.08 999.60 1001.03 1001.60 1001.46 1001.54 1000.37 1000.76 998.30 997.67 997.16 996.31 996.08 995.90 995.62 995.22 995.23
1020.28 1019.75 1019.29 1018.99 1018.08 1016.96 1016.43 1016.51 1016.31 1016.05 1012.16 1008.74 1008.12 1008.06 1007.56 1007.60 1007.03 1005.77 1006.26 1006.55 1005.12 1004.03 1003.17 999.46 999.71 999.11 998.24 997.44 999.60 999.18 1000.98 1001.17 1001.27 1001.16 1001.05 1000.25 999.10 996.76 996.32 995.15 994.59 994.65 994.27 994.18 994.32
1019.98 1019.41 1019.00 1017.46 1017.95 1017.00 1016.66 1016.59 1016.13 1014.94 1010.25 1008.29 1007.73 1007.73 1007.31 1006.62 1006.20 1005.74 1005.73 1006.20 1005.52 1004.78 1002.72 1000.60 999.36 998.69 997.07 998.64 998.96 1000.04 1000.68 1000.81 1000.81 1000.59 999.53 998.98 998.34 995.93 994.60 993.80 993.60 993.24 993.25 993.26 993.91
1019.45 1018.85 1018.54 1017.55 1017.00 1016.97 1016.75 1015.97 1014.94 1012.36 1009.68 1008.60 1008.49 1008.04 1007.46 1006.47 1005.88 1005.93 1005.51 1004.99 1004.77 1004.00 1002.19 1000.59 999.08 998.37 997.41 997.63 998.41 999.21 999.79 999.36 999.47 998.88 997.90 997.73 996.83 994.79 993.85 993.68 993.25 992.83 993.06 993.51 994.76
1019.03 1018.39 1018.03 1017.19 1017.41 1017.29 1016.90 1015.92 1013.60 1011.03 1010.26 1009.56 1009.14 1008.58 1007.41 1006.38 1005.88 1006.66 1005.69 1004.75 1003.66 1003.49 1001.48 1000.39 998.74 997.45 996.32 995.73 996.02 996.90 997.59 996.68 996.70 996.81 996.36 996.15 995.37 993.95 993.74 992.99 992.40 992.35 992.75 993.40 994.85
1018.58 1017.32 1016.77 1017.25 1017.34 1017.45 1017.05 1015.13 1012.33 1011.48 1011.26 1010.65 1009.79 1008.12 1006.71 1006.46 1006.70 1006.76 1006.14 1006.56 1005.38 1003.44 1001.98 999.98 997.65 996.52 995.98 995.94 995.59 995.98 995.69 996.16 995.88 996.30 996.24 994.78 994.45 993.87 993.04 992.08 992.03 991.97 992.54 993.47 994.92
1018.12 1017.19 1016.57 1017.24 1017.60 1017.87 1017.37 1014.96 1013.15 1012.47 1011.79 1010.96 1009.80 1008.70 1007.76 1007.09 1007.00 1007.06 1007.50 1008.73 1007.90 1005.40 1002.83 1001.64 998.06 995.63 995.83 995.42 994.96 994.35 996.03 995.78 995.56 995.55 995.21 994.70 994.26 993.24 992.38 991.40 991.36 991.61 992.26 993.82 995.11
1017.81 1016.41 1016.72 1017.15 1017.13 1017.15 1016.05 1014.40 1013.34 1012.60 1012.09 1011.25 1010.10 1009.41 1008.82 1007.91 1007.62 1007.65 1008.25 1008.51 1009.05 1007.02 1005.41 1002.70 999.99 995.89 994.99 993.70 992.80 993.56 993.99 994.87 995.26 995.30 994.70 994.40 993.47 992.81 992.20 991.61 991.17 991.40 992.42 993.91 994.98
1017.71 1015.91 1016.65 1016.69 1016.26 1016.31 1015.71 1014.97 1014.11 1012.56 1011.92 1011.22 1010.49 1009.87 1009.13 1008.67 1007.95 1007.61 1008.07 1008.38 1009.09 1007.92 1005.91 1003.11 1000.90 997.02 993.85 993.95 993.52 993.35 993.33 994.41 994.25 994.82 995.01 994.53 993.58 992.22 992.13 991.90 992.04 991.62 992.86 993.99 994.90
1018.10 1017.14 1016.66 1016.46 1016.31 1016.40 1015.92 1014.75 1013.52 1012.84 1011.86 1011.25 1010.51 1009.98 1009.61 1008.92 1008.39 1008.03 1007.91 1008.35 1009.36 1008.63 1007.27 1004.82 1001.31 997.41 994.38 994.20 993.58 992.52 993.36 993.88 994.37 994.08 994.37 993.99 992.97 991.87 992.16 991.94 992.29 992.37 993.29 994.18 994.93
1018.12 1016.63 1016.04 1016.46 1016.81 1016.75 1015.80 1014.38 1013.35 1012.92 1011.95 1011.70 1010.76 1010.34 1009.59 1008.86 1008.69 1008.87 1009.17 1009.17 1009.22 1008.74 1007.77 1005.91 1001.94 998.01 994.40 992.84 992.77 992.76 992.94 993.36 994.17 993.82 993.51 993.07 992.53 992.13 991.76 992.07 992.52 993.17 993.78 994.31 995.00
1018.54 1017.47 1017.90 1016.78 1016.58 1016.65 1016.04 1015.27 1014.23 1013.33 1012.26 1011.49 1010.62 1010.22 1009.70 1009.11 1008.39 1009.22 1009.40 1009.39 1008.59 1008.05 1006.75 1004.56 1001.43 998.86 996.70 995.08 993.66 992.66 992.90 993.01 993.56 993.54 993.22 993.01 992.76 992.21 991.75 992.40 992.92 993.38 993.90 994.44 995.02
1019.34 1019.28 1018.51 1017.62 1016.92 1016.51 1015.61 1014.74 1014.23 1013.71 1013.61 1011.82 1010.89 1010.20 1009.79 1008.97 1008.38 1008.04 1008.18 1007.99 1007.79 1006.82 1005.99 1004.33 1000.90 999.03 997.51 996.08 994.51 992.82 993.11 993.35 993.65 993.87 993.71 993.54 992.68 992.56 992.77 993.27 993.58 994.07 994.22 994.42 994.91
1019.98 1019.45 1019.37 1017.66 1016.83 1016.61 1015.75 1015.30 1014.78 1014.40 1013.41 1012.07 1011.34 1010.51 1009.48 1008.49 1008.28 1007.90 1007.60 1007.62 1007.57 1006.97 1006.27 1005.11 1002.60 999.46 997.30 995.94 995.06 993.75 993.50 993.85 994.12 994.42 994.51 993.89 993.80 994.77 994.54 994.70 994.76 994.76 994.73 994.52 994.54
Wind_Speed
15 15 13 13 12 12 13 14 15 16 15 16 16 17 18 20 22 13 13 6 4 13 4 7 11 10 12 16 16 15 12 15 20 20 16 12 11 5 3 11 13 9 14 13 13
15 15 16 16 15 14 14 13 12 13 15 14 15 15 16 18 18 17 9 9 10 12 11 16 17 17 14 17 12 16 16 24 21 22 19 22 14 14 10 16 19 19 18 11 11
15 15 16 17 17 17 17 16 14 13 12 13 15 15 15 19 12 9 10 7 14 16 21 19 16 16 21 20 21 20 28 24 24 25 22 20 22 22 19 18 21 20 22 20 18
15 16 15 16 17 17 17 17 16 16 14 12 13 14 15 9 10 8 10 13 9 16 20 23 20 21 19 26 23 30 29 24 26 26 23 21 24 24 23 22 24 22 22 22 21
15 15 16 16 16 17 17 18 17 16 15 13 12 11 11 10 16 4 13 9 10 7 20 24 25 22 28 23 26 34 27 26 23 23 25 23 26 27 28 21 26 22 21 19 18
16 15 17 17 17 17 17 17 16 16 16 14 11 9 13 18 6 9 12 12 10 10 11 20 15 22 23 28 27 26 26 30 26 23 22 23 26 28 27 16 27 23 23 20 20
16 17 18 18 18 18 18 17 16 17 19 16 13 9 15 21 10 11 17 16 8 10 14 14 22 13 16 21 25 24 27 28 21 24 26 20 31 31 26 21 26 22 20 18 17
17 16 18 18 19 19 19 19 20 21 21 17 13 10 11 8 11 17 16 18 17 17 15 13 13 22 21 14 17 23 28 28 24 20 17 18 35 26 18 21 19 17 17 16 18
18 17 18 18 18 19 19 21 24 21 12 7 8 9 11 7 10 12 11 15 14 17 15 14 18 21 17 23 19 26 26 32 30 26 26 27 39 29 26 15 16 16 18 17 18
18 18 18 18 18 19 20 24 17 10 7 7 5 7 8 10 1 4 12 10 11 14 14 21 14 16 22 22 29 25 26 27 30 22 21 26 30 27 23 24 20 21 19 20 19
21 19 18 17 17 17 17 9 5 8 8 13 7 15 21 16 9 15 8 6 11 14 26 23 21 29 41 29 26 25 25 30 24 23 24 24 28 28 27 18 23 23 19 21 20
21 21 19 18 18 16 10 8 4 6 13 16 22 22 24 22 17 18 13 12 15 22 25 23 32 44 27 28 26 27 29 29 24 23 20 19 25 26 23 24 24 26 22 23 19
18 19 19 18 17 8 8 7 5 8 9 17 9 10 5 5 12 18 18 19 22 21 30 36 46 25 30 28 31 29 29 26 25 21 19 22 25 27 27 30 28 23 21 19 20
19 18 18 18 12 5 8 2 7 7 7 10 6 6 6 3 7 13 11 22 20 27 24 33 32 28 32 33 30 31 24 23 22 20 19 18 21 22 21 24 21 23 22 21 20
19 20 18 10 9 6 6 7 8 5 8 7 7 6 6 6 8 4 7 14 26 23 17 35 26 35 31 38 28 24 15 20 20 19 20 22 17 20 23 24 23 22 23 21 18
20 19 15 6 3 8 7 7 7 7 8 1 2 2 9 10 6 6 6 12 13 27 27 28 19 27 38 22 27 22 14 18 15 14 17 21 21 20 19 21 21 14 11 9 8
22 20 11 4 5 6 6 6 7 9 5 1 6 11 17 16 8 7 10 8 12 16 27 24 28 24 22 30 24 24 21 11 12 13 13 15 13 20 17 20 20 15 5 7 4
23 20 6 4 4 6 4 6 6 5 7 16 12 17 20 17 5 7 13 12 17 23 19 22 22 33 25 29 22 29 25 12 16 12 13 7 10 11 11 15 13 12 12 3 5
23 0 1 6 4 2 4 6 6 10 8 11 16 17 12 3 6 5 5 8 12 15 20 19 28 30 22 25 28 32 28 22 14 3 7 6 9 14 20 18 15 8 5 5 9
7 4 5 7 5 3 2 5 7 9 12 14 15 8 12 12 10 2 6 5 12 17 13 10 16 25 31 27 29 26 23 21 13 14 15 7 10 10 13 11 7 10 6 10 13
5 5 7 7 3 2 4 6 11 9 11 9 13 15 14 12 7 4 4 1 4 15 11 13 10 20 27 26 26 19 23 19 14 11 8 4 4 11 14 11 3 5 9 15 16
4 3 5 6 4 3 5 12 10 11 11 10 9 9 8 10 14 7 7 6 2 9 9 8 7 15 25 24 24 26 18 23 13 16 13 8 7 5 5 7 4 3 11 16 17
7 4 3 7 4 6 8 17 13 13 14 9 11 7 14 15 8 6 7 6 4 5 4 5 10 11 18 23 22 28 24 22 16 10 16 14 5 5 5 8 6 5 13 16 19
5 5 2 3 2 7 12 9 12 11 11 9 14 6 11 14 3 7 10 5 7 6 14 12 10 15 8 22 17 25 26 26 20 12 14 16 10 11 8 6 9 6 13 16 18
4 5 4 5 7 12 9 9 13 9 6 12 8 7 13 13 16 2 7 6 8 8 8 5 16 19 15 6 8 24 26 23 24 21 16 12 19 18 6 6 11 4 12 16 18
5 4 5 11 9 11 8 8 14 14 8 12 11 16 16 16 14 16 13 6 4 6 8 8 13 15 15 12 8 14 26 24 25 23 16 11 13 7 2 4 6 1 12 15 17
0 3 3 7 6 8 7 13 10 14 8 10 13 15 15 11 13 15 14 13 13 16 8 7 7 13 16 12 6 12 20 22 22 21 18 19 17 13 9 11 12 10 9 12 17
Wind_Direction
358 353 350 346 343 340 339 334 334 330 330 331 331 335 331 324 311 275 260 249 183 160 221 187 188 197 210 232 234 242 236 247 249 253 262 231 258 128 310 274 276 269 278 306 310
355 350 350 349 346 341 331 329 329 325 326 328 326 324 323 320 302 271 263 239 220 169 214 207 199 184 211 223 216 225 229 244 254 271 273 282 242 282 273 276 277 277 267 261 257
352 348 345 344 341 336 332 330 322 317 322 322 324 322 320 309 277 245 51 359 235 208 228 229 239 206 225 229 221 231 246 254 248 257 259 271 274 273 278 275 275 296 302 298 301
349 344 345 340 334 331 327 325 320 323 319 316 315 317 316 295 256 86 44 344 325 201 214 215 221 210 232 232 228 244 253 251 263 260 257 258 271 277 271 272 282 288 293 292 288
342 340 340 333 329 324 320 317 318 319 312 308 306 310 297 236 247 141 340 344 314 188 210 205 209 218 226 233 235 244 249 264 248 263 270 274 267 273 275 282 282 282 282 285 284
336 340 334 329 326 322 318 315 310 308 302 295 288 294 267 256 319 299 298 299 288 250 211 216 226 225 241 239 242 246 252 256 263 257 260 263 268 267 266 269 278 278 282 283 285
342 337 331 328 323 318 317 312 304 295 293 284 275 259 258 254 277 291 284 282 276 273 245 213 225 223 223 247 253 251 253 258 250 253 254 264 268 256 265 261 265 272 278 281 282
333 329 329 329 324 319 316 309 301 296 290 276 258 252 259 258 271 267 272 268 248 239 253 273 248 239 244 266 267 248 240 248 234 228 237 230 262 264 280 275 265 267 277 282 282
334 330 330 328 327 321 314 302 297 296 287 236 211 222 268 119 234 248 245 257 262 232 230 240 224 233 225 233 249 233 240 240 243 243 241 232 257 258 259 259 264 266 277 282 282
328 328 326 325 325 323 317 296 295 263 200 187 247 221 232 242 223 257 276 239 248 225 210 217 218 216 223 214 224 228 227 242 259 242 236 244 251 260 264 264 279 273 277 279 277
335 330 327 326 323 321 314 293 236 199 220 263 270 247 292 279 271 279 265 257 224 233 208 199 208 218 217 217 234 249 254 249 245 243 249 249 257 269 275 282 271 269 270 272 279
336 334 332 327 323 322 286 341 11 345 294 272 257 260 269 280 273 261 269 246 207 221 214 202 218 221 219 222 224 233 240 248 255 262 270 272 270 273 277 273 271 273 265 269 268
331 330 327 326 316 278 322 303 333 324 266 290 267 252 261 248 249 256 221 223 235 228 215 217 224 217 216 220 223 225 236 245 259 269 253 252 268 269 262 259 259 260 259 259 261
330 328 330 333 276 339 292 150 303 315 277 253 192 184 195 230 237 237 243 228 219 234 229 232 232 218 220 224 217 231 225 246 253 257 259 255 276 274 280 278 269 266 263 263 265
328 326 329 327 299 286 3 299 309 242 274 92 140 103 288 244 319 90 155 228 235 220 222 225 219 226 217 221 218 231 232 236 241 254 266 259 261 273 259 262 258 258 258 254 254
322 323 326 247 274 282 302 294 258 232 248 271 133 318 301 294 281 314 309 210 258 241 245 246 226 220 231 218 221 219 216 226 236 245 249 250 252 270 271 266 271 269 257 241 188
321 317 301 300 329 340 305 250 230 250 50 195 335 320 308 294 292 301 291 251 228 210 231 231 236 244 233 211 202 199 195 199 215 217 247 249 243 247 284 286 276 272 258 128 145
323 314 149 296 340 297 240 237 264 298 293 320 329 307 290 287 295 305 280 287 222 246 228 223 221 222 200 210 188 192 187 207 218 231 244 198 245 250 266 277 284 267 245 250 148
311 108 350 29 20 269 269 232 320 357 354 313 298 278 280 232 276 283 305 341 302 237 236 224 231 189 222 207 203 185 211 216 245 166 267 255 239 264 259 261 255 261 212 174 150
319 284 71 21 84 98 188 292 312 318 308 304 294 294 303 315 299 304 349 67 326 322 257 264 255 205 203 203 208 196 196 200 214 226 241 248 255 263 270 315 212 237 209 153 143
289 269 67 336 187 231 319 330 316 321 313 312 308 299 306 313 319 302 266 343 335 302 293 258 265 212 183 200 188 190 195 208 205 242 202 264 245 254 249 284 318 165 147 150 147
315 289 37 313 245 6 322 327 315 304 313 286 281 290 288 305 302 297 244 188 247 295 291 208 292 273 195 198 217 203 192 195 202 192 237 274 263 242 339 310 320 219 143 148 144
340 295 66 293 14 347 321 306 280 301 317 319 307 309 322 301 292 274 263 102 248 278 294 5 232 235 193 193 202 207 197 193 208 208 203 216 229 184 98 76 25 138 145 149 144
300 325 85 13 4 320 332 319 324 315 308 303 307 312 322 335 324 347 326 339 257 304 279 256 254 255 220 193 180 206 195 197 199 208 210 218 227 230 156 46 39 125 156 152 152
358 28 352 320 330 321 306 297 304 313 325 305 300 291 337 321 314 58 314 285 221 261 276 251 226 233 260 333 280 199 198 195 194 215 218 198 231 246 249 340 5 145 165 155 153
332 341 342 294 304 312 305 302 310 318 320 306 306 322 318 300 297 293 292 291 303 308 333 294 240 238 245 236 261 204 196 196 206 213 218 229 241 238 277 337 346 155 177 168 165
115 288 274 302 311 313 336 319 302 309 271 306 310 306 300 314 316 302 293 282 271 286 304 319 304 222 229 201 223 183 185 194 210 215 223 224 236 15 337 338 340 353 210 193 173